TimeEDT,TemperatureF,Dew PointF,Humidity,Sea Level PressureIn,VisibilityMPH,Wind Direction,Wind SpeedMPH,Gust SpeedMPH,PrecipitationIn,Events,Conditions,WindDirDegrees,DateUTC
12:54 AM,48.9,46.9,93,29.64,-9999.0,North,-9999.0,-,0.02,,Unknown,0,2013-10-20 04:54:00
1:54 AM,48.9,46.0,90,29.63,-9999.0,North,-9999.0,-,0.01,,Unknown,0,2013-10-20 05:54:00
2:54 AM,50.0,46.0,86,29.61,-9999.0,North,-9999.0,-,N/A,,Unknown,0,2013-10-20 06:54:00
3:54 AM,48.9,46.9,93,29.61,-9999.0,North,-9999.0,-,0.02,,Unknown,0,2013-10-20 07:54:00
4:54 AM,48.9,46.0,90,29.63,-9999.0,North,-9999.0,-,0.01,,Unknown,0,2013-10-20 08:54:00
5:54 AM,48.9,45.0,86,29.65,-9999.0,North,-9999.0,-,N/A,,Unknown,0,2013-10-20 09:54:00
6:54 AM,46.0,43.0,89,29.68,-9999.0,North,-9999.0,-,N/A,,Unknown,0,2013-10-20 10:54:00
7:54 AM,45.0,43.0,93,29.70,-9999.0,North,-9999.0,-,N/A,,Unknown,0,2013-10-20 11:54:00
8:54 AM,48.0,39.9,74,29.72,-9999.0,North,-9999.0,-,N/A,,Unknown,0,2013-10-20 12:54:00
9:54 AM,50.0,34.0,54,29.75,-9999.0,North,-9999.0,-,N/A,,Unknown,0,2013-10-20 13:54:00
10:54 AM,52.0,32.0,47,29.76,-9999.0,North,-9999.0,-,N/A,,Unknown,0,2013-10-20 14:54:00
11:54 AM,52.0,30.9,45,29.77,-9999.0,North,-9999.0,-,N/A,,Unknown,0,2013-10-20 15:54:00
12:54 PM,53.1,32.0,45,29.78,-9999.0,North,-9999.0,-,N/A,,Unknown,0,2013-10-20 16:54:00
1:54 PM,54.0,30.0,40,29.78,-9999.0,North,-9999.0,-,N/A,,Unknown,0,2013-10-20 17:54:00
2:54 PM,55.9,28.9,36,29.79,-9999.0,North,-9999.0,-,N/A,,Unknown,0,2013-10-20 18:54:00
3:54 PM,55.0,28.0,35,29.81,-9999.0,North,-9999.0,-,N/A,,Unknown,0,2013-10-20 19:54:00
4:54 PM,54.0,28.9,38,29.83,-9999.0,North,-9999.0,-,N/A,,Unknown,0,2013-10-20 20:54:00
5:54 PM,52.0,30.0,43,29.85,-9999.0,North,-9999.0,-,N/A,,Unknown,0,2013-10-20 21:54:00
6:54 PM,48.0,32.0,54,29.88,-9999.0,North,-9999.0,-,N/A,,Unknown,0,2013-10-20 22:54:00
7:54 PM,45.0,33.1,63,29.91,-9999.0,North,-9999.0,-,N/A,,Unknown,0,2013-10-20 23:54:00
8:54 PM,41.0,35.1,79,29.93,-9999.0,North,-9999.0,-,N/A,,Unknown,0,2013-10-21 00:54:00
9:54 PM,39.0,34.0,82,29.95,-9999.0,North,-9999.0,-,N/A,,Unknown,0,2013-10-21 01:54:00
10:54 PM,37.9,34.0,86,29.96,-9999.0,North,-9999.0,-,N/A,,Unknown,0,2013-10-21 02:54:00
11:54 PM,36.0,33.1,89,29.97,-9999.0,North,-9999.0,-,N/A,,Unknown,0,2013-10-21 03:54:00